| time (UTC) | temp F | wind direction | speed knots | gust knots | rain 1hr in | rain 24hr in | rain mn in | humidity % | barometer mb |
| 20260503231826 | 62 | 270 | 1.7 | 3.5 | 0.00 | 0.00 | 0.00 | 44 | 1019.1 |
| 20260503230827 | 62 | 270 | 0.0 | 0.9 | 0.00 | 0.00 | 0.00 | 42 | 1019.1 |
| 20260503224926 | 63 | 292 | 0.9 | 1.7 | 0.00 | 0.00 | 0.00 | 41 | 1019.1 |
| 20260503223927 | 63 | 247 | 0.0 | 1.7 | 0.00 | 0.00 | 0.00 | 42 | 1019.1 |
| 20260503222827 | 63 | 223 | 0.0 | 1.7 | 0.00 | 0.00 | 0.00 | 41 | 1019.1 |
| 20260503221828 | 63 | 247 | 0.9 | 1.7 | 0.00 | 0.00 | 0.00 | 42 | 1019.2 |
| 20260503220828 | 64 | 247 | 1.7 | 2.6 | 0.00 | 0.00 | 0.00 | 42 | 1019.2 |
| 20260503220726 | 64 | 247 | 1.7 | 2.6 | 0.00 | 0.00 | 0.00 | 42 | 1019.1 |
| 20260503215727 | 63 | 222 | 0.9 | 2.6 | 0.00 | 0.00 | 0.00 | 41 | 1019.2 |
| 20260503213826 | 64 | 218 | 0.9 | 3.5 | 0.00 | 0.00 | 0.00 | 41 | 1019.1 |
| 20260503212827 | 64 | 247 | 1.7 | 3.5 | 0.00 | 0.00 | 0.00 | 41 | 1019.4 |
| 20260503210826 | 64 | 270 | 3.5 | 4.3 | 0.00 | 0.00 | 0.00 | 40 | 1019.5 |
| 20260503203827 | 64 | 292 | 0.9 | 2.6 | 0.00 | 0.00 | 0.00 | 39 | 1019.8 |
| 20260503202828 | 65 | 284 | 2.6 | 4.3 | 0.00 | 0.00 | 0.00 | 38 | 1019.9 |
| 20260503202727 | 65 | 253 | 3.5 | 5.2 | 0.00 | 0.00 | 0.00 | 38 | 1020.0 |
| 20260503200728 | 66 | 267 | 2.6 | 4.3 | 0.00 | 0.00 | 0.00 | 37 | 1020.1 |
| 20260503195727 | 65 | 271 | 1.7 | 2.6 | 0.00 | 0.00 | 0.00 | 38 | 1020.3 |
| 20260503193727 | 65 | 292 | 0.0 | 0.9 | 0.00 | 0.00 | 0.00 | 37 | 1020.4 |
| 20260503193627 | 65 | 292 | 1.7 | 1.7 | 0.00 | 0.00 | 0.00 | 37 | 1020.4 |
| 20260503192627 | 66 | 253 | 2.6 | 3.5 | 0.00 | 0.00 | 0.00 | 37 | 1020.6 |
| 20260503191630 | 65 | 109 | 0.0 | 0.9 | 0.00 | 0.00 | 0.00 | 37 | 1020.8 |
| 20260503190627 | 65 | 275 | 2.6 | 4.3 | 0.00 | 0.00 | 0.00 | 34 | 1020.8 |
| 20260503185627 | 65 | 320 | 1.7 | 3.5 | 0.00 | 0.00 | 0.00 | 34 | 1021.0 |
| 20260503184726 | 66 | 270 | 3.5 | 5.2 | 0.00 | 0.00 | 0.00 | 34 | 1020.9 |
| 20260503183728 | 65 | 184 | 0.9 | 2.6 | 0.00 | 0.00 | 0.00 | 33 | 1020.9 |
| 20260503182728 | 65 | 180 | 0.0 | 0.0 | 0.00 | 0.00 | 0.00 | 33 | 1021.1 |
| 20260503181727 | 66 | 247 | 0.9 | 1.7 | 0.00 | 0.00 | 0.00 | 32 | 1021.2 |
| 20260503180826 | 64 | 182 | 0.0 | 0.9 | 0.00 | 0.00 | 0.00 | 33 | 1021.2 |
| 20260503180727 | 64 | 157 | 0.0 | 0.9 | 0.00 | 0.00 | 0.00 | 33 | 1021.2 |
| 20260503175729 | 66 | 292 | 0.9 | 1.7 | 0.00 | 0.00 | 0.00 | 32 | 1021.3 |
| 20260503174727 | 67 | 209 | 0.9 | 3.5 | 0.00 | 0.00 | 0.00 | 34 | 1021.2 |
| 20260503173825 | 65 | 202 | 0.0 | 0.9 | 0.00 | 0.00 | 0.00 | 34 | 1021.5 |
| 20260503172828 | 64 | 202 | 0.0 | 0.9 | 0.00 | 0.00 | 0.00 | 35 | 1021.6 |
| 20260503171926 | 63 | 247 | 0.0 | 0.0 | 0.00 | 0.00 | 0.00 | 36 | 1021.8 |
| 20260503170927 | 63 | 278 | 0.0 | 1.7 | 0.00 | 0.00 | 0.00 | 36 | 1022.0 |
| 20260503150826 | 48 | 292 | 0.0 | 0.0 | 0.00 | 0.00 | 0.00 | 71 | 1023.2 |
| 20260503130827 | 35 | 45 | 0.0 | 0.0 | 0.00 | 0.00 | 0.00 | 96 | 1022.5 |
| 20260503110626 | 32 | 180 | 0.0 | 0.9 | 0.00 | 0.00 | 0.00 | 94 | 1021.8 |
| 20260503081628 | 35 | 180 | 0.0 | 0.0 | 0.00 | 0.00 | 0.00 | 90 | 1019.9 |
| 20260503080627 | 35 | 180 | 0.0 | 0.0 | 0.00 | 0.00 | 0.00 | 90 | 1019.9 |
| 20260503080528 | 35 | 180 | 0.0 | 0.0 | 0.00 | 0.00 | 0.00 | 90 | 1020.0 |
| 20260503072427 | 35 | 180 | 0.0 | 0.0 | 0.00 | 0.00 | 0.00 | 88 | 1019.5 |
| 20260503071428 | 36 | 180 | 0.0 | 0.0 | 0.00 | 0.00 | 0.00 | 88 | 1019.5 |
| 20260503070426 | 36 | 180 | 0.0 | 0.0 | 0.00 | 0.00 | 0.00 | 87 | 1019.3 |
| 20260503060328 | 38 | 180 | 0.0 | 0.0 | 0.00 | 0.00 | 0.00 | 83 | 1019.3 |
| 20260503054327 | 39 | 180 | 0.0 | 0.0 | 0.00 | 0.00 | 0.00 | 82 | 1019.5 |
| 20260503053426 | 39 | 180 | 0.0 | 0.0 | 0.00 | 0.00 | 0.00 | 81 | 1019.5 |
| 20260503052428 | 39 | 180 | 0.0 | 0.0 | 0.00 | 0.00 | 0.00 | 78 | 1019.6 |
| 20260503052327 | 39 | 180 | 0.0 | 0.0 | 0.00 | 0.00 | 0.00 | 78 | 1019.5 |
| 20260503051327 | 39 | 180 | 0.0 | 0.0 | 0.00 | 0.00 | 0.00 | 78 | 1019.6 |
| 20260503050327 | 39 | 180 | 0.0 | 0.0 | 0.00 | 0.00 | 0.00 | 77 | 1019.5 |
| 20260503045326 | 40 | 180 | 0.0 | 0.0 | 0.00 | 0.00 | 0.00 | 77 | 1019.5 |
| 20260503044327 | 41 | 180 | 0.0 | 0.9 | 0.00 | 0.00 | 0.00 | 74 | 1019.5 |
| 20260503042328 | 41 | 180 | 0.0 | 0.0 | 0.00 | 0.00 | 0.00 | 72 | 1019.3 |
| 20260503041327 | 42 | 180 | 0.0 | 0.0 | 0.00 | 0.00 | 0.00 | 69 | 1019.2 |
| 20260503040327 | 43 | 180 | 0.0 | 0.0 | 0.00 | 0.00 | 0.00 | 69 | 1019.3 |
| 20260503035332 | 43 | 180 | 0.0 | 0.0 | 0.00 | 0.00 | 0.00 | 67 | 1019.2 |
| 20260503034332 | 44 | 180 | 0.0 | 0.0 | 0.00 | 0.00 | 0.00 | 66 | 1019.1 |
| 20260503033431 | 45 | 180 | 0.0 | 0.0 | 0.00 | 0.00 | 0.00 | 64 | 1019.2 |
| 20260503033330 | 45 | 180 | 0.0 | 0.0 | 0.00 | 0.00 | 0.00 | 63 | 1019.2 |
| 20260503031230 | 46 | 45 | 0.9 | 1.7 | 0.00 | 0.00 | 0.00 | 61 | 1018.9 |
| 20260503024330 | 47 | 22 | 0.0 | 0.9 | 0.00 | 0.00 | 0.00 | 56 | 1018.6 |
| 20260503023332 | 48 | 22 | 0.9 | 1.7 | 0.00 | 0.00 | 0.00 | 56 | 1018.6 |
| 20260503022331 | 49 | 22 | 1.7 | 1.7 | 0.00 | 0.00 | 0.00 | 55 | 1018.6 |
| 20260503021331 | 49 | 22 | 0.9 | 0.9 | 0.00 | 0.00 | 0.00 | 54 | 1018.6 |
| 20260503020430 | 49 | 22 | 0.9 | 0.9 | 0.00 | 0.00 | 0.00 | 54 | 1018.5 |
| 20260503015430 | 49 | 67 | 0.0 | 0.0 | 0.00 | 0.00 | 0.00 | 52 | 1018.4 |
| 20260503012530 | 50 | 67 | 0.0 | 0.9 | 0.00 | 0.00 | 0.00 | 51 | 1018.1 |
| 20260503011533 | 50 | 112 | 0.0 | 0.0 | 0.00 | 0.00 | 0.00 | 48 | 1017.9 |
| 20260503010530 | 51 | 112 | 0.9 | 1.7 | 0.00 | 0.00 | 0.00 | 47 | 1017.8 |
| 20260503005532 | 51 | 112 | 0.9 | 0.9 | 0.00 | 0.00 | 0.00 | 47 | 1017.5 |
| 20260503004532 | 51 | 112 | 0.9 | 1.7 | 0.00 | 0.00 | 0.00 | 47 | 1017.4 |
| 20260503003629 | 52 | 90 | 0.9 | 1.7 | 0.00 | 0.00 | 0.00 | 46 | 1017.3 |
| 20260503001730 | 53 | 129 | 0.0 | 2.6 | 0.00 | 0.00 | 0.00 | 43 | 1017.1 |
| 20260502235733 | 54 | 167 | 0.9 | 1.7 | 0.00 | 0.00 | 0.00 | 43 | 1016.7 |
| 20260502234732 | 54 | 153 | 2.6 | 3.5 | 0.00 | 0.00 | 0.00 | 43 | 1016.6 |
| 20260502233830 | 54 | 157 | 1.7 | 2.6 | 0.00 | 0.00 | 0.00 | 43 | 1016.4 |
| 20260502233733 | 54 | 157 | 1.7 | 1.7 | 0.00 | 0.00 | 0.00 | 43 | 1016.4 |